CAPE
0 0 0 25 613 1422 2060 1595 1171 1502 1329 1054 618 352 250 43 31 495 721 609 317 205 374 613 306 169 0 0 0 5 7 10
0 0 0 0 105 756 1747 1260 1048 1057 984 518 505 431 390 137 166 517 426 420 260 104 249 453 245 130 3 0 3 35 17 46
0 0 0 4 87 307 946 912 695 521 780 448 260 467 480 563 360 394 372 355 201 60 51 118 172 23 0 0 0 5 44 22
0 0 0 102 262 406 293 200 512 263 303 277 213 250 345 684 556 464 518 323 239 104 28 80 108 53 24 0 0 52 0 29
0 0 0 3 23 37 41 23 0 17 1 4 7 276 355 238 628 334 304 604 416 154 90 100 76 72 1 0 0 57 46 6
0 0 0 0 0 0 0 0 0 0 0 0 0 2 52 132 199 525 288 63 76 167 102 171 89 0 0 0 35 40 48 16
0 0 0 0 0 0 0 0 0 0 0 0 0 0 0 12 59 167 133 35 0 9 1 2 1 0 0 0 0 31 51 28
0 0 0 0 0 0 2 3 3 0 0 0 0 0 0 0 0 18 42 33 4 1 0 0 0 0 0 0 0 0 0 32
0 0 0 0 2 4 17 34 60 39 3 6 8 0 0 0 0 0 0 3 5 0 2 0 0 0 0 0 0 0 0 0
0 0 0 0 0 41 67 3 52 82 39 29 23 7 9 0 0 1 2 1 3 2 0 0 0 0 0 0 0 0 0 0
0 0 0 0 0 0 58 81 126 152 117 143 119 113 20 13 2 0 0 0 0 0 0 0 0 0 0 0 0 0 0 0
0 0 0 0 0 0 0 118 143 224 240 214 135 81 7 31 9 9 14 0 2 0 0 0 0 0 0 0 0 0 0 0
0 0 0 0 0 0 0 72 186 258 333 411 417 122 3 0 1 0 0 0 0 0 0 0 0 0 0 0 0 0 0 0
0 0 0 4 8 1 24 59 134 275 409 466 582 468 190 87 70 0 0 0 0 1 0 10 0 0 0 0 0 0 0 0
0 1 7 73 6 4 16 46 88 152 229 494 574 533 500 337 15 0 0 0 0 26 36 23 2 0 0 0 0 0 0 0
7 6 28 65 36 8 87 128 161 221 270 317 438 545 408 333 36 0 0 2 0 15 27 26 11 0 1 0 0 1 0 0
46 21 76 33 50 24 21 1 0 65 247 365 364 461 287 233 29 11 12 5 0 2 2 0 0 0 0 2 0 0 0 0
83 102 94 40 74 9 0 21 32 7 66 332 412 323 282 109 36 62 7 3 7 3 5 25 13 6 1 0 0 0 0 0
99 149 149 77 39 20 107 91 240 321 119 239 348 267 122 26 4 20 29 2 18 16 17 39 21 3 1 1 0 0 0 0
CIN
-0 -0 -0 -55 -55 -11 -0 -27 -63 -31 -38 -49 -88 -116 -143 -159 -181 -73 -41 -42 -56 -62 -22 -0 -17 -9 -0 -0 -0 -0 -0 -0
-0 -0 -0 -0 -100 -39 -0 -54 -63 -52 -62 -97 -64 -83 -85 -112 -89 -29 -33 -52 -47 -64 -25 -7 -12 -16 -22 -0 -0 -0 -0 -0
-0 -0 -0 -34 -89 -73 -11 -62 -77 -89 -59 -62 -83 -38 -27 -8 -30 -28 -23 -28 -43 -79 -68 -41 -5 -31 -0 -0 -0 -0 -0 -2
-0 -0 -0 -64 -80 -73 -93 -105 -75 -87 -66 -64 -70 -46 -30 -2 -10 -7 -3 -12 -8 -21 -51 -20 -11 -8 -13 -0 -0 -0 -0 -0
-0 -0 -0 -23 -162 -174 -175 -208 -0 -152 -1 -6 -7 -26 -9 -16 -0 -12 -17 -0 -0 -2 -16 -11 -32 -1 -3 -0 -0 -0 -1 -0
-0 -0 -0 -0 -0 -0 -0 -0 -0 -0 -0 -0 -0 -101 -61 -15 -5 -1 -11 -33 -27 -1 -19 -7 -18 -0 -0 -0 -2 -17 -1 -0
-0 -0 -0 -0 -0 -0 -0 -0 -0 -0 -0 -0 -0 -0 -19 -86 -51 -32 -33 -47 -0 -0 -0 -0 -0 -0 -0 -0 -0 -17 -3 -5
-0 -0 -0 -0 -0 -0 -61 -66 -79 -0 -0 -0 -0 -0 -0 -0 -0 -0 -1 -5 -1 -0 -0 -0 -0 -0 -0 -0 -0 -0 -0 -15
-0 -0 -0 -1 -21 -68 -45 -30 -36 -68 -0 -0 -0 -0 -0 -0 -0 -0 -0 -0 -0 -0 -0 -0 -0 -0 -0 -0 -0 -0 -0 -0
-0 -0 -0 -0 -0 -4 -2 -1 -0 -0 -7 -34 -60 -69 -0 -0 -0 -3 -1 -0 -0 -1 -0 -0 -0 -0 -0 -0 -0 -0 -0 -0
-0 -0 -0 -0 -0 -0 -1 -0 -0 -0 -1 -0 -0 -2 -31 -0 -0 -0 -0 -0 -0 -0 -0 -0 -0 -0 -0 -0 -0 -0 -0 -0
-0 -0 -0 -0 -0 -0 -0 -0 -0 -0 -0 -0 -15 -3 -75 -1 -3 -0 -0 -0 -1 -0 -0 -0 -0 -0 -0 -0 -0 -0 -0 -0
-0 -0 -0 -0 -0 -0 -0 -0 -0 -0 -0 -0 -1 -33 -29 -0 -0 -0 -0 -0 -0 -0 -0 -0 -0 -0 -0 -0 -0 -0 -0 -0
-0 -0 -0 -0 -17 -0 -17 -8 -0 -0 -0 -0 -0 -2 -59 -38 -4 -0 -0 -0 -0 -0 -0 -0 -0 -0 -0 -0 -0 -0 -0 -0
-0 -0 -0 -7 -6 -4 -21 -16 -13 -19 -17 -3 -1 -1 -0 -24 -32 -0 -0 -0 -0 -0 -0 -0 -2 -0 -0 -0 -0 -0 -0 -0
-0 -0 -0 -0 -0 -10 -0 -0 -2 -4 -10 -3 -0 -1 -9 -0 -50 -0 -12 -68 -8 -1 -0 -0 -4 -0 -0 -0 -0 -0 -0 -0
-0 -0 -1 -0 -0 -0 -1 -23 -0 -16 -0 -0 -0 -1 -1 -4 -27 -45 -73 -92 -25 -28 -2 -0 -0 -0 -0 -0 -0 -0 -0 -0
-1 -0 -1 -0 -0 -7 -0 -2 -20 -6 -18 -0 -0 -0 -1 -23 -34 -19 -0 -55 -75 -65 -13 -0 -1 -5 -0 -0 -0 -0 -0 -0
-0 -0 -0 -0 -0 -0 -0 -7 -1 -0 -10 -1 -0 -0 -27 -117 -62 -71 -41 -0 -69 -32 -3 -0 -0 -1 -0 -0 -0 -0 -0 -0
Wind_Speed
nan nan nan nan 36 36 45 44 50 51 49 46 46 48 50 nan nan 55 55 53 53 54 52 52 57 53 nan nan nan nan nan nan
nan nan nan nan 40 38 51 44 46 49 51 52 48 47 49 55 56 57 60 57 58 59 58 60 58 56 nan nan nan nan nan nan
nan nan nan nan nan 46 48 50 46 48 49 47 47 46 47 48 54 57 57 59 61 nan nan 65 64 nan nan nan nan nan nan nan
nan nan nan 55 56 54 55 50 51 52 50 50 49 46 48 48 51 56 56 58 61 59 nan nan 65 nan nan nan nan nan nan nan
nan nan nan nan nan nan nan nan nan nan nan nan nan 53 57 58 60 64 67 62 67 71 nan 71 nan nan nan nan nan nan nan nan
nan nan nan nan nan nan nan nan nan nan nan nan nan nan nan 64 67 72 73 nan nan 69 77 70 nan nan nan nan nan nan nan nan
nan nan nan nan nan nan nan nan nan nan nan nan nan nan nan nan nan 74 74 nan nan nan nan nan nan nan nan nan nan nan nan nan
nan nan nan nan nan nan nan nan nan nan nan nan nan nan nan nan nan nan nan nan nan nan nan nan nan nan nan nan nan nan nan nan
nan nan nan nan nan nan nan nan nan nan nan nan nan nan nan nan nan nan nan nan nan nan nan nan nan nan nan nan nan nan nan nan
nan nan nan nan nan nan nan nan nan nan nan nan nan nan nan nan nan nan nan nan nan nan nan nan nan nan nan nan nan nan nan nan
nan nan nan nan nan nan nan nan 58 67 74 79 80 72 nan nan nan nan nan nan nan nan nan nan nan nan nan nan nan nan nan nan
nan nan nan nan nan nan nan 66 68 73 77 61 41 nan nan nan nan nan nan nan nan nan nan nan nan nan nan nan nan nan nan nan
nan nan nan nan nan nan nan nan 75 80 72 52 51 50 nan nan nan nan nan nan nan nan nan nan nan nan nan nan nan nan nan nan
nan nan nan nan nan nan nan nan 67 54 49 39 37 39 42 nan nan nan nan nan nan nan nan nan nan nan nan nan nan nan nan nan
nan nan nan nan nan nan nan nan nan 40 34 29 28 28 31 31 nan nan nan nan nan nan nan nan nan nan nan nan nan nan nan nan
nan nan nan nan nan nan nan 38 27 26 25 24 24 28 24 26 nan nan nan nan nan nan nan nan nan nan nan nan nan nan nan nan
nan nan nan nan nan nan nan nan nan nan 23 19 23 28 30 33 nan nan nan nan nan nan nan nan nan nan nan nan nan nan nan nan
nan 56 nan nan nan nan nan nan nan nan nan 21 21 17 25 31 nan nan nan nan nan nan nan nan nan nan nan nan nan nan nan nan
nan 46 33 nan nan nan 26 nan 21 19 19 23 25 23 21 nan nan nan nan nan nan nan nan nan nan nan nan nan nan nan nan nan
Wind_Direction
nan nan nan nan 295 291 293 292 290 288 287 281 279 281 284 nan nan 282 291 289 292 289 287 287 286 285 nan nan nan nan nan nan
nan nan nan nan 282 286 293 290 281 280 280 281 281 284 283 283 281 284 289 290 292 291 286 289 288 285 nan nan nan nan nan nan
nan nan nan nan nan 285 289 290 287 284 280 281 281 281 281 280 280 281 285 288 289 nan nan 289 287 nan nan nan nan nan nan nan
nan nan nan 284 282 282 284 286 287 285 280 277 275 273 276 284 286 280 282 284 287 287 nan nan 284 nan nan nan nan nan nan nan
nan nan nan nan nan nan nan nan nan nan nan nan nan 289 292 288 288 285 284 280 281 278 nan 273 nan nan nan nan nan nan nan nan
nan nan nan nan nan nan nan nan nan nan nan nan nan nan nan 291 288 287 290 nan nan 279 279 279 nan nan nan nan nan nan nan nan
nan nan nan nan nan nan nan nan nan nan nan nan nan nan nan nan nan 296 295 nan nan nan nan nan nan nan nan nan nan nan nan nan
nan nan nan nan nan nan nan nan nan nan nan nan nan nan nan nan nan nan nan nan nan nan nan nan nan nan nan nan nan nan nan nan
nan nan nan nan nan nan nan nan nan nan nan nan nan nan nan nan nan nan nan nan nan nan nan nan nan nan nan nan nan nan nan nan
nan nan nan nan nan nan nan nan nan nan nan nan nan nan nan nan nan nan nan nan nan nan nan nan nan nan nan nan nan nan nan nan
nan nan nan nan nan nan nan nan 309 310 310 308 306 307 nan nan nan nan nan nan nan nan nan nan nan nan nan nan nan nan nan nan
nan nan nan nan nan nan nan 309 311 309 308 306 285 nan nan nan nan nan nan nan nan nan nan nan nan nan nan nan nan nan nan nan
nan nan nan nan nan nan nan nan 306 303 302 299 292 285 nan nan nan nan nan nan nan nan nan nan nan nan nan nan nan nan nan nan
nan nan nan nan nan nan nan nan 297 293 294 295 289 290 286 nan nan nan nan nan nan nan nan nan nan nan nan nan nan nan nan nan
nan nan nan nan nan nan nan nan nan 283 283 284 288 295 286 287 nan nan nan nan nan nan nan nan nan nan nan nan nan nan nan nan
nan nan nan nan nan nan nan 294 288 287 286 280 289 304 303 307 nan nan nan nan nan nan nan nan nan nan nan nan nan nan nan nan
nan nan nan nan nan nan nan nan nan nan 282 275 284 299 303 306 nan nan nan nan nan nan nan nan nan nan nan nan nan nan nan nan
nan 293 nan nan nan nan nan nan nan nan nan 286 289 284 296 304 nan nan nan nan nan nan nan nan nan nan nan nan nan nan nan nan
nan 296 287 nan nan nan 265 nan 274 280 278 277 277 279 290 nan nan nan nan nan nan nan nan nan nan nan nan nan nan nan nan nan